Regional Weather Roundup
Issued by NWS

Home | Current Version | Previous Version | Graphics & Text | Print | Product List | Glossary On
Versions: 1 2 3 4 5 6 7 8 9 10 11 12 13 14 15 16 17 18 19 20 21 22 23 24 25 26 27 28 29 30 31 32 33 34 35 36 37 38 39 40 41 42 43 44 45 46 47 48 49 50
177
ASUS43 KOAX 270002
RWRNE

WEATHER ROUNDUP FOR NEBRASKA
NATIONAL WEATHER SERVICE OMAHA NE
600 PM CST SUN FEB 26 2017

NOTES: SATELLITE DATA IS BEING USED TO AUGMENT CLOUD COVER ABOVE
       12000 FEET.
       "FAIR" INDICATES FEW OR NO CLOUDS BELOW 12,000 FEET WITH NO
       SIGNIFICANT WEATHER AND/OR OBSTRUCTIONS TO VISIBILITY.

  * THESE STATIONS DO NOT REPORT WEATHER SUCH AS RAIN...SNOW OR FOG.

NEZ001>004-019>022-054>056-270100-
NEBRASKA PANHANDLE

CITY           SKY/WX    TMP DP  RH WIND       PRES   REMARKS
SCOTTSBLUFF    CLOUDY    31  12  45 W9        29.82S WCI  23
6HR MIN TEMP:  25; 6HR MAX TEMP:  33;

ALLIANCE       CLOUDY    21  14  74 W7        29.81S WCI  12
6HR MIN TEMP:  21; 6HR MAX TEMP:  27;

CHADRON        CLOUDY    26  13  57 S8        29.81F WCI  18
6HR MIN TEMP:  23; 6HR MAX TEMP:  27;

KIMBALL        CLEAR     32  19  60 SE5       29.79F WCI  27
SIDNEY         CLEAR     33  16  49 W3        29.82S
6HR MIN TEMP:  30; 6HR MAX TEMP:  35;

$$

NEZ057>060-069>072-079>082-270100-
SOUTHWEST NEBRASKA

CITY           SKY/WX    TMP DP  RH WIND       PRES   REMARKS
NORTH PLATTE   CLEAR     37  11  34 W10       29.89S WCI  30
6HR MIN TEMP:  35; 6HR MAX TEMP:  41;

IMPERIAL       CLEAR     38  14  37 NE8       29.86F WCI  32
6HR MIN TEMP:  36; 6HR MAX TEMP:  41;

LEXINGTON      CLEAR     39  15  37 NW3       29.91R
MCCOOK         CLEAR     40   9  28 N10       29.91R WCI  33
6HR MIN TEMP:  40; 6HR MAX TEMP:  45;

OGALLALA       CLEAR     36  14  40 CALM      29.88R
$$

NEZ005>010-023>029-035>040-094-270100-
NORTH CENTRAL NEBRASKA

CITY           SKY/WX    TMP DP  RH WIND       PRES   REMARKS
VALENTINE      CLOUDY    23  14  68 SW8       29.84S WCI  14
6HR MIN TEMP:  23; 6HR MAX TEMP:  31;

AINSWORTH      CLEAR     28  19  68 SW7       29.86R WCI  21
BROKEN BOW     CLEAR     36  20  52 W6        29.89R WCI  31
6HR MIN TEMP:  30; 6HR MAX TEMP:  39;

O`NEILL        CLEAR     32  21  63 SW5       29.89R WCI  27
ORD            CLEAR     37  16  42 W5        29.89R WCI  33
6HR MIN TEMP:  32; 6HR MAX TEMP:  40;

THEDFORD       CLEAR     30  17  58 SW3       29.87S
$$

NEZ041-046>049-061>064-073>077-083>087-270100-
SOUTH CENTRAL NEBRASKA

CITY           SKY/WX    TMP DP  RH WIND       PRES   REMARKS
GRAND ISLAND   CLEAR     41  17  38 W6        29.92R
6HR MIN TEMP:  38; 6HR MAX TEMP:  45;

AURORA         CLEAR     41  18  38 CALM      29.92R
HASTINGS       CLEAR     40  17  39 W7        29.93R
6HR MIN TEMP:  40; 6HR MAX TEMP:  45;

HEBRON         CLEAR     44  13  28 CALM      29.93R
HOLDREGE       CLEAR     40   8  27 NW3       29.92R
KEARNEY *      CLEAR     41  10  28 W5        29.92R
YORK           CLEAR     39  25  56 NE5       29.93S
$$

NEZ011>018-030>034-042>045-270100-
NORTHEAST NEBRASKA

CITY           SKY/WX    TMP DP  RH WIND       PRES   REMARKS
NORFOLK        CLEAR     35  23  61 S5        29.92R WCI  31
6HR MIN TEMP:  30; 6HR MAX TEMP:  37;

ALBION         CLEAR     39  19  45 CALM      29.92R
BLAIR          CLEAR     40  24  54 CALM      29.95R
FREMONT        CLEAR     40  23  51 CALM      29.96R
TEKAMAH        CLEAR     35  27  72 SE3       29.96R
6HR MIN TEMP:  32; 6HR MAX TEMP:  38;

WAYNE          CLEAR     32  26  77 S7        29.92S WCI  26
$$

NEZ050>053-065>068-078-088>093-270100-
SOUTHEAST NEBRASKA

CITY           SKY/WX    TMP DP  RH WIND       PRES   REMARKS
LINCOLN        CLEAR     41  23  48 N3        29.96R
6HR MIN TEMP:  40; 6HR MAX TEMP:  47;

OMAHA EPPLEY   CLEAR     40  23  50 N5        29.96R
6HR MIN TEMP:  40; 6HR MAX TEMP:  45;

BEATRICE       CLEAR     42  20  42 N7        29.94R
FALLS CITY     PTCLDY    46  23  40 NW6       29.93R
6HR MIN TEMP:  46; 6HR MAX TEMP:  54;

NEBRASKA CITY  CLEAR     40  17  38 N6        29.95R
PLATTSMOUTH    CLEAR     40  19  42 NW5       29.95R
$$

NEZ044-045-051>053-067-270100-
OMAHA AREA

CITY           SKY/WX    TMP DP  RH WIND       PRES   REMARKS
OMAHA EPPLEY   CLEAR     40  23  50 N5        29.96R
6HR MIN TEMP:  40; 6HR MAX TEMP:  45;

BLAIR          CLEAR     40  24  54 CALM      29.95R
FREMONT        CLEAR     40  23  51 CALM      29.96R
MILLARD        CLEAR     44  20  38 CALM      29.96R
OFFUTT AFB     CLEAR     39  20  46 NW5       29.95R
PLATTSMOUTH    CLEAR     40  19  42 NW5       29.95R
WAHOO          FAIR      40  25  56 CALM      29.95S
$$




USA.gov is the U.S. government's official web portal to all federal, state and local government web resources and services.